TimeMST,TemperatureF,Dew PointF,Humidity,Sea Level PressureIn,VisibilityMPH,Wind Direction,Wind SpeedMPH,Gust SpeedMPH,PrecipitationIn,Events,Conditions,WindDirDegrees,DateUTC
12:56 AM,59.0,36.0,42,29.96,10.0,Calm,Calm,-,N/A,,Clear,0,2012-11-03 07:56:00
1:56 AM,53.1,36.0,52,29.98,10.0,SSW,4.6,-,N/A,,Clear,200,2012-11-03 08:56:00
2:56 AM,53.1,37.0,55,29.98,10.0,South,4.6,-,N/A,,Clear,190,2012-11-03 09:56:00
3:56 AM,53.1,37.0,55,29.99,10.0,SSW,6.9,-,N/A,,Clear,210,2012-11-03 10:56:00
4:56 AM,54.0,37.9,55,30.00,10.0,SW,8.1,-,N/A,,Clear,230,2012-11-03 11:56:00
5:56 AM,54.0,37.9,55,30.02,10.0,SW,8.1,-,N/A,,Clear,220,2012-11-03 12:56:00
6:56 AM,53.1,37.9,57,30.05,10.0,South,4.6,-,N/A,,Clear,190,2012-11-03 13:56:00
7:56 AM,61.0,39.0,44,30.05,10.0,South,3.5,-,N/A,,Clear,190,2012-11-03 14:56:00
8:56 AM,64.0,39.9,41,30.06,10.0,NNE,3.5,-,N/A,,Clear,20,2012-11-03 15:56:00
9:56 AM,66.9,41.0,39,30.05,10.0,Variable,5.8,-,N/A,,Clear,0,2012-11-03 16:56:00
10:56 AM,70.0,43.0,38,30.04,10.0,ESE,8.1,16.1,N/A,,Scattered Clouds,110,2012-11-03 17:56:00
11:56 AM,70.0,39.9,33,30.03,10.0,SE,13.8,18.4,N/A,,Clear,130,2012-11-03 18:56:00
12:56 PM,71.1,37.9,30,30.00,10.0,ENE,5.8,-,N/A,,Clear,70,2012-11-03 19:56:00
1:56 PM,72.0,35.1,26,29.99,10.0,SE,5.8,-,N/A,,Clear,140,2012-11-03 20:56:00
2:55 PM,71.6,28.4,20,29.98,10.0,Variable,4.6,-,N/A,,Mostly Cloudy,0,2012-11-03 21:55:00
3:55 PM,71.6,26.6,19,29.98,10.0,Variable,1.2,-,N/A,,Mostly Cloudy,0,2012-11-03 22:55:00
4:55 PM,71.6,28.4,20,29.99,10.0,Calm,Calm,-,N/A,,Mostly Cloudy,0,2012-11-03 23:55:00
5:55 PM,66.2,32.0,28,30.01,10.0,Variable,1.2,-,N/A,,Scattered Clouds,0,2012-11-04 00:55:00
6:55 PM,62.6,32.0,32,30.03,10.0,SW,5.8,-,N/A,,Scattered Clouds,230,2012-11-04 01:55:00
7:55 PM,60.8,32.0,34,30.03,10.0,WSW,6.9,-,N/A,,Partly Cloudy,250,2012-11-04 02:55:00
8:55 PM,60.8,33.8,36,30.03,10.0,WSW,6.9,-,N/A,,Clear,240,2012-11-04 03:55:00
9:56 PM,59.0,32.0,36,30.04,10.0,SW,5.8,-,N/A,,Clear,230,2012-11-04 04:56:00
10:56 PM,59.0,32.0,36,30.04,10.0,Calm,Calm,-,N/A,,Clear,0,2012-11-04 05:56:00
11:56 PM,59.0,30.9,35,30.06,10.0,SSW,4.6,-,N/A,,Clear,200,2012-11-04 06:56:00